Location: Unspecified
(0.0000°N, 0.0000°E)
Time: 19:00:51
(UTC+00:00)

Vanguard 2 Rocket - Pass Details

Date: 24 January 2020
Orbit: 554 x 3327 km, 32.9° (Epoch: 20 February)

Event Time Altitude Azimuth Distance (km) Brightness Sun altitude
Rises 15:18:18 0° 279° (W) 6,540 11.9 40.5°
Reaches altitude 10° 15:22:51 10° 271° (W) 5,809 12.0 39.4°
Maximum altitude 15:39:48 38° 210° (SSW) 4,379 11.6 35.6°
Drops below altitude 10° 15:56:58 10° 147° (SSE) 5,802 11.0 31.7°
Sets 16:01:38 0° 139° (SE) 6,523 11.1 30.6°
